Check out our new BloomSky Weather System.

Active alerts


No alerts


Thunder radar  blitzortung!


Rain radar more information rain snow radar


Visit our other weather sites:

Template documentation
and downloads

And another site



Weather Underground History page Text

Daily Summary for January 16, 2018 Units:  English    Metric   Both
« Previous Day
Next Day »
Daily Weekly Monthly Yearly Custom
  High: Low: Average:
Temperature: TemperatureF °F 24.3 °F 29.1 °F
Dew Point: DewpointF °F 16.0 °F 25.8 °F
Humidity: Humidity % 70 % 87 %
Wind Speed: WindSpeedMPH mph 0.0 mph 6 mph
Wind Gust: WindSpeedGustMPH mph - -
Wind:- - WNW
Pressure: PressureIn in 30.31 in -
Precipitation: 0.00 in    
Historical Graphs
 
 
Tabular Data for January 16, 2018
Time Temperature Dew Point Pressure Wind Wind Speed Wind Gust Humidity Rainfall Rate (Hourly)
TemperatureF °F DewpointF °F PressureIn in Calm     Humidity % HourlyPrecipIn in
00:05 53.8 °F 49.6 °F 30.31 in Calm   2.0 mph 86 % 0.00 in
00:43 53.2 °F 50.0 °F 30.34 in NNW 9.0 mph 11.0 mph 89 % 0.00 in
00:50 52.9 °F 50.4 °F 30.35 in NW 6.0 mph 11.0 mph 91 % 0.00 in
00:57 52.5 °F 50.2 °F 30.35 in NW 7.0 mph 9.0 mph 92 % 0.00 in
01:06 52.2 °F 50.2 °F 30.36 in NW 6.0 mph 13.0 mph 93 % 0.00 in
01:21 49.5 °F 47.5 °F 30.37 in NW 7.0 mph 14.0 mph 93 % 0.00 in
02:00 46.0 °F 44.6 °F 30.40 in NW 8.0 mph 13.0 mph 95 % 0.00 in
02:06 45.1 °F 43.9 °F 30.40 in NNW 9.0 mph 14.0 mph 95 % 0.00 in
02:23 43.2 °F 41.9 °F 30.41 in North 6.0 mph 16.0 mph 95 % 0.00 in
03:01 39.6 °F 38.3 °F 30.44 in NW 8.0 mph 18.0 mph 95 % 0.00 in
03:09 38.8 °F 37.6 °F 30.44 in ESE 5.0 mph 18.0 mph 95 % 0.00 in
03:15 38.5 °F 37.4 °F 30.45 in NW 7.0 mph 17.0 mph 96 % 0.00 in
03:22 38.5 °F 37.4 °F 30.45 in NNW 5.0 mph 16.0 mph 96 % 0.00 in
03:51 36.9 °F 35.8 °F 30.47 in NW 3.0 mph 21.0 mph 96 % 0.00 in
03:56 36.5 °F 35.2 °F 30.47 in NNE 11.0 mph 20.0 mph 95 % 0.00 in
03:57 36.3 °F 35.1 °F 30.47 in NW 10.0 mph 20.0 mph 95 % 0.00 in
04:14 34.7 °F 33.6 °F 30.48 in NNW 7.0 mph 19.0 mph 96 % 0.00 in
04:55 32.4 °F 31.3 °F 30.50 in NW 12.0 mph 18.0 mph 96 % 0.00 in
05:01 32.0 °F 30.9 °F 30.51 in NW 11.0 mph 18.0 mph 96 % 0.00 in
05:08 31.8 °F 30.7 °F 30.51 in NW 6.0 mph 18.0 mph 96 % 0.00 in
05:13 31.6 °F 30.6 °F 30.51 in NW 8.0 mph 18.0 mph 96 % 0.00 in
05:31 31.3 °F 30.2 °F 30.52 in NW 8.0 mph 17.0 mph 96 % 0.00 in
05:41 31.3 °F 30.2 °F 30.53 in NNW 8.0 mph 17.0 mph 96 % 0.00 in
05:50 30.9 °F 29.8 °F 30.54 in NW 8.0 mph 13.0 mph 96 % 0.00 in
05:59 30.7 °F 29.7 °F 30.54 in NW 10.0 mph 17.0 mph 96 % 0.00 in
06:06 30.7 °F 29.7 °F 30.55 in North 4.0 mph 17.0 mph 96 % 0.00 in
06:13 30.7 °F 29.7 °F 30.55 in NW 10.0 mph 15.0 mph 96 % 0.00 in
06:20 30.7 °F 29.7 °F 30.55 in NNW 6.0 mph 19.0 mph 96 % 0.00 in
06:30 30.6 °F 29.5 °F 30.56 in NNW 8.0 mph 16.0 mph 96 % 0.00 in
06:37 30.2 °F 29.1 °F 30.56 in NW 6.0 mph 17.0 mph 96 % 0.00 in
06:46 29.8 °F 28.8 °F 30.56 in NE 9.0 mph 17.0 mph 96 % 0.00 in
06:52 29.7 °F 28.6 °F 30.56 in NNE 6.0 mph 14.0 mph 96 % 0.00 in
07:07 29.1 °F 28.0 °F 30.57 in NNW 6.0 mph 16.0 mph 96 % 0.00 in
07:24 28.8 °F 27.5 °F 30.58 in NNW 10.0 mph 12.0 mph 95 % 0.00 in
07:43 28.6 °F 27.3 °F 30.59 in North 6.0 mph 14.0 mph 95 % 0.00 in
07:49 28.2 °F 27.0 °F 30.59 in NNW 8.0 mph 17.0 mph 95 % 0.00 in
07:57 28.2 °F 27.0 °F 30.59 in NNW 7.0 mph 17.0 mph 95 % 0.00 in
08:13 28.0 °F 26.6 °F 30.61 in North 4.0 mph 16.0 mph 94 % 0.00 in
08:20 27.9 °F 26.4 °F 30.61 in NNW 6.0 mph 17.0 mph 94 % 0.00 in
08:38 27.3 °F 25.9 °F 30.62 in NW 6.0 mph 17.0 mph 94 % 0.00 in
08:45 27.1 °F 25.7 °F 30.63 in NW 7.0 mph 19.0 mph 94 % 0.00 in
08:59 27.1 °F 25.7 °F 30.63 in NNW 9.0 mph 16.0 mph 94 % 0.00 in
09:11 26.8 °F 25.3 °F 30.64 in NW 7.0 mph 16.0 mph 94 % 0.00 in
09:25 26.8 °F 25.3 °F 30.64 in NNW 8.0 mph 18.0 mph 94 % 0.00 in
09:50 27.0 °F 25.2 °F 30.66 in North 2.0 mph 17.0 mph 93 % 0.00 in
10:02 27.0 °F 25.2 °F 30.66 in NW 5.0 mph 16.0 mph 93 % 0.00 in
10:17 27.1 °F 25.3 °F 30.66 in North 14.0 mph 14.0 mph 93 % 0.00 in
10:24 27.1 °F 25.3 °F 30.66 in NNW 8.0 mph 15.0 mph 93 % 0.00 in
10:37 26.8 °F 25.0 °F 30.66 in NNE 10.0 mph 15.0 mph 93 % 0.00 in
10:49 26.6 °F 24.6 °F 30.66 in NW 6.0 mph 16.0 mph 92 % 0.00 in
11:38 25.0 °F 23.0 °F 30.67 in NNW 13.0 mph 14.0 mph 92 % 0.00 in
11:44 25.0 °F 22.6 °F 30.66 in NNW 1.0 mph 14.0 mph 91 % 0.00 in
11:52 25.2 °F 22.6 °F 30.66 in North 7.0 mph 21.0 mph 90 % 0.00 in
12:10 25.5 °F 23.2 °F 30.66 in SW 2.0 mph 16.0 mph 91 % 0.00 in
12:16 25.7 °F 23.4 °F 30.65 in NW 6.0 mph 16.0 mph 91 % 0.00 in
12:25 25.9 °F 23.5 °F 30.65 in NNE 11.0 mph 14.0 mph 91 % 0.00 in
12:51 25.3 °F 22.6 °F 30.64 in WNW 3.0 mph 17.0 mph 89 % 0.00 in
12:56 25.5 °F 22.8 °F 30.64 in NNW 6.0 mph 17.0 mph 89 % 0.00 in
13:04 25.9 °F 23.0 °F 30.65 in NNW 8.0 mph 17.0 mph 89 % 0.00 in
13:21 25.2 °F 21.9 °F 30.64 in NW 6.0 mph 16.0 mph 87 % 0.00 in
13:28 25.2 °F 22.1 °F 30.64 in NW 2.0 mph 16.0 mph 88 % 0.00 in
13:35 25.2 °F 21.9 °F 30.64 in NW 3.0 mph 17.0 mph 87 % 0.00 in
13:44 25.2 °F 22.5 °F 30.63 in NNE 4.0 mph 17.0 mph 89 % 0.00 in
13:56 25.0 °F 22.3 °F 30.64 in NNW 9.0 mph 10.0 mph 89 % 0.00 in
14:15 25.2 °F 22.5 °F 30.64 in WNW 6.0 mph 13.0 mph 89 % 0.00 in
14:32 25.7 °F 23.0 °F 30.62 in North 9.0 mph 11.0 mph 89 % 0.00 in
14:45 25.5 °F 22.3 °F 30.62 in NW 6.0 mph 15.0 mph 87 % 0.00 in
15:03 25.0 °F 21.9 °F 30.62 in NNW 6.0 mph 14.0 mph 88 % 0.00 in
15:23 24.8 °F 21.7 °F 30.63 in North 6.0 mph 14.0 mph 88 % 0.00 in
15:29 24.8 °F 21.7 °F 30.64 in NW 4.0 mph 13.0 mph 88 % 0.00 in
15:36 24.6 °F 21.6 °F 30.64 in NW 4.0 mph 12.0 mph 88 % 0.00 in
15:46 24.8 °F 21.6 °F 30.64 in NW 2.0 mph 12.0 mph 87 % 0.00 in
16:16 25.0 °F 20.8 °F 30.64 in NW 2.0 mph 17.0 mph 84 % 0.00 in
16:22 25.2 °F 21.4 °F 30.64 in NW 3.0 mph 17.0 mph 85 % 0.00 in
16:29 25.2 °F 21.0 °F 30.64 in NW 4.0 mph 17.0 mph 84 % 0.00 in
16:35 25.2 °F 21.0 °F 30.64 in NW 4.0 mph 9.0 mph 84 % 0.00 in
16:42 25.2 °F 20.7 °F 30.64 in NW 4.0 mph 13.0 mph 83 % 0.00 in
16:56 25.2 °F 20.5 °F 30.64 in NNW 4.0 mph 13.0 mph 82 % 0.00 in
17:26 25.3 °F 20.1 °F 30.64 in NW 8.0 mph 13.0 mph 80 % 0.00 in
17:48 25.2 °F 19.6 °F 30.65 in NW 4.0 mph 14.0 mph 79 % 0.00 in
17:55 25.2 °F 19.6 °F 30.66 in NW 5.0 mph 14.0 mph 79 % 0.00 in
18:03 25.0 °F 19.0 °F 30.66 in NW 5.0 mph 14.0 mph 78 % 0.00 in
18:10 25.0 °F 19.0 °F 30.66 in NW 4.0 mph 14.0 mph 78 % 0.00 in
18:23 25.0 °F 19.4 °F 30.66 in NNW 2.0 mph 14.0 mph 79 % 0.00 in
18:32 25.0 °F 19.0 °F 30.66 in NNW 3.0 mph 14.0 mph 78 % 0.00 in
18:41 25.0 °F 18.5 °F 30.66 in NW 2.0 mph 15.0 mph 76 % 0.00 in
18:50 24.8 °F 18.3 °F 30.67 in NNW 5.0 mph 16.0 mph 76 % 0.00 in
19:00 25.0 °F 18.5 °F 30.67 in NW 5.0 mph 14.0 mph 76 % 0.00 in
19:06 25.0 °F 18.1 °F 30.66 in NNW 4.0 mph 15.0 mph 75 % 0.00 in
19:55 25.3 °F 18.9 °F 30.69 in NNW 8.0 mph 11.0 mph 76 % 0.00 in
20:14 25.3 °F 18.0 °F 30.69 in North 4.0 mph 18.0 mph 73 % 0.00 in
20:30 25.3 °F 18.1 °F 30.70 in North 4.0 mph 17.0 mph 74 % 0.00 in
20:45 25.3 °F 18.0 °F 30.71 in NNE 11.0 mph 15.0 mph 73 % 0.00 in
20:55 25.3 °F 18.0 °F 30.71 in WNW 5.0 mph 14.0 mph 73 % 0.00 in
21:01 25.3 °F 18.0 °F 30.71 in WNW 3.0 mph 12.0 mph 73 % 0.00 in
21:12 25.3 °F 18.1 °F 30.71 in NNW 5.0 mph 14.0 mph 74 % 0.00 in
21:30 25.3 °F 18.0 °F 30.71 in WNW 4.0 mph 10.0 mph 73 % 0.00 in
21:41 25.5 °F 18.1 °F 30.71 in NW 4.0 mph 12.0 mph 73 % 0.00 in
21:56 25.5 °F 17.8 °F 30.72 in North 3.0 mph 11.0 mph 72 % 0.00 in
22:01 25.5 °F 17.8 °F 30.72 in West 2.0 mph 11.0 mph 72 % 0.00 in
22:11 25.5 °F 17.8 °F 30.72 in NW 2.0 mph 11.0 mph 72 % 0.00 in
22:18 25.5 °F 17.4 °F 30.72 in NNE 8.0 mph 11.0 mph 71 % 0.00 in
22:29 25.5 °F 17.8 °F 30.72 in North 1.0 mph 11.0 mph 72 % 0.00 in
22:45 25.5 °F 17.4 °F 30.72 in WNW 2.0 mph 12.0 mph 71 % 0.00 in
22:52 25.3 °F 17.2 °F 30.73 in North 14.0 mph 14.0 mph 71 % 0.00 in
23:02 25.3 °F 16.9 °F 30.72 in NNW 6.0 mph 14.0 mph 70 % 0.00 in
23:54 24.3 °F 16.0 °F 30.72 in NNW 3.0 mph 10.0 mph 70 % 0.00 in
Spring, Texas: Villages of Bridgestone
Compliments of Weather Underground - 1.75 mb

Script developed by  Jim McMurry - jmcmurry@mwt.net Adapted for the template by  Wim van der Kuil - Leuven-Template.eu

You find our weather info also at:

UK Metoffice

WeatherCloud

Weather Underground

Mid-South Weather Network

AWEKAS

Citizen Weather Observer Program (CWOP)

HAMweather, WeatherForYou, PWS Weather

Equipment we use:

Weather-station
Davis Vantage Vue

Weather-program
Meteohub

Weather-server
Debian 7.9 x86 (Guest)

Provider
DreamHost

Davis Vantage Vue

Meteohub

Debian 7.9 x86 (Guest)

DreamHost